Simultaneous Nadir Overpasses (SNOs) Predictions

Prediction of SNOs between GOES-15 and NPP Satellite Orbit:

Table of predicted SNOs for the next 14.0 days since TLE Epoch: 12/26/2020
Index Date Time (GOES-15) GOES-15 Lat,Lon NPP Lat,Lon Distance(km) Time Diff (sec)
1 12/26/2020 10:13:46 0.14,-128.25 0.91,-131.79 402.19 80
2 12/27/2020 09:52:21 0.12,-128.25 -0.10,-127.26 113.47 80
3 12/28/2020 22:16:57 -0.17,-128.27 -1.12,-132.56 487.95 80
4 12/29/2020 21:55:33 -0.15,-128.27 -0.11,-128.03 27.12 80
5 01/01/2021 10:01:16 0.17,-128.22 0.31,-128.76 62.00 80
6 01/02/2021 09:39:52 0.15,-128.21 -0.76,-124.24 452.69 80
7 01/03/2021 22:04:28 -0.19,-128.22 -0.51,-129.53 149.91 80
8 01/04/2021 21:43:04 -0.16,-128.21 0.56,-125.01 364.43 80
9 01/06/2021 10:07:31 0.21,-128.16 0.65,-130.28 240.54 80
10 01/07/2021 09:46:07 0.18,-128.15 -0.36,-125.75 273.66 80
11 01/08/2021 22:10:42 -0.23,-128.15 -0.90,-131.04 329.55 80
